SITE: BDASc,YEAR: 2004,,,,,
2004date,time,pzhd (cm),DWT (cm),WT elev (m),,
01/01/04,0:00,135.6,264.6,1370.783,,Depth to water table:
01/01/04,0:30,135.6,264.7,1370.783,,DWT = SCL - CH - h (all values in cm)
01/01/04,1:00,135.6,264.7,1370.783,,where
01/01/04,1:30,135.7,264.6,1370.784,,SCL = sensor cable length = 550.7 cm
01/01/04,2:00,135.7,264.6,1370.784,,CH = casing height of well = 150.5 cm
01/01/04,2:30,135.6,264.7,1370.783,,h = height of water above sensor (from pzhd column)
01/01/04,3:00,135.6,264.7,1370.783,,
01/01/04,3:30,135.6,264.7,1370.783,,WT elevation:
01/01/04,4:00,135.7,264.6,1370.784,,Sensor elev = 1369.427 m asl
01/01/04,4:30,135.6,264.7,1370.783,,WT elev = sensor elev + h (from pzhd column)
01/01/04,5:00,135.6,264.7,1370.783,,
01/01/04,5:30,135.5,264.8,1370.782,,
01/01/04,6:00,135.5,264.8,1370.782,,Dates w/missing data (#0.5 hr data points):
01/01/04,6:30,135.5,264.8,1370.782,,"1/13 (6), 2/21 (10), 3/11 (5), 4/19 (4), 4/27 (10),"
01/01/04,7:00,135.4,264.9,1370.781,,"6/10 (8), 6/16 (4), 7/ 5 (4), 9/8 (13), 12/8 (18)."
01/01/04,7:30,135.4,264.9,1370.781,,
01/01/04,8:00,135.3,265.0,1370.780,,
01/01/04,8:30,135.3,265.0,1370.780,,
01/01/04,9:00,135.3,264.9,1370.780,,
01/01/04,9:30,135.3,264.9,1370.780,,
01/01/04,10:00,135.3,264.9,1370.780,,
01/01/04,10:30,135.4,264.8,1370.781,,
01/01/04,11:00,135.6,264.6,1370.783,,
01/01/04,11:30,135.8,264.4,1370.785,,
01/01/04,12:00,136.1,264.1,1370.788,,
01/01/04,12:30,136.1,264.1,1370.788,,
01/01/04,13:00,136.2,264.0,1370.789,,
01/01/04,13:30,136.2,264.0,1370.789,,
01/01/04,14:00,136.2,264.0,1370.789,,
01/01/04,14:30,136.2,264.0,1370.789,,
01/01/04,15:00,136.3,263.9,1370.790,,
01/01/04,15:30,136.2,264.0,1370.789,,
01/01/04,16:00,136.1,264.1,1370.788,,
01/01/04,16:30,136.2,264.0,1370.789,,
01/01/04,17:00,136.2,264.0,1370.789,,
01/01/04,17:30,136.2,264.0,1370.789,,
01/01/04,18:00,136.0,264.2,1370.787,,
01/01/04,18:30,136.0,264.2,1370.787,,
01/01/04,19:00,136.0,264.2,1370.787,,
01/01/04,19:30,136.0,264.2,1370.787,,
01/01/04,20:00,136.0,264.2,1370.787,,
01/01/04,20:30,135.9,264.3,1370.786,,
01/01/04,21:00,135.8,264.4,1370.785,,
01/01/04,21:30,135.9,264.3,1370.786,,
01/01/04,22:00,135.9,264.3,1370.786,,
01/01/04,22:30,135.9,264.3,1370.786,,
01/01/04,23:00,135.8,264.4,1370.785,,
01/01/04,23:30,135.9,264.3,1370.786,,
01/02/04,0:00,135.9,264.3,1370.786,,
01/02/04,0:30,135.9,264.3,1370.786,,
01/02/04,1:00,136.0,264.2,1370.787,,
01/02/04,1:30,136.0,264.2,1370.787,,
01/02/04,2:00,135.9,264.3,1370.786,,
01/02/04,2:30,136.0,264.2,1370.787,,
01/02/04,3:00,136.0,264.2,1370.787,,
01/02/04,3:30,136.1,264.1,1370.788,,
01/02/04,4:00,135.9,264.3,1370.786,,
01/02/04,4:30,135.9,264.3,1370.786,,
01/02/04,5:00,135.9,264.3,1370.786,,
01/02/04,5:30,135.9,264.3,1370.786,,
01/02/04,6:00,135.9,264.3,1370.786,,
01/02/04,6:30,136.0,264.2,1370.787,,
01/02/04,7:00,135.9,264.3,1370.786,,
01/02/04,7:30,135.8,264.4,1370.785,,
01/02/04,8:00,135.9,264.3,1370.786,,
01/02/04,8:30,135.9,264.3,1370.786,,
01/02/04,9:00,135.8,264.4,1370.785,,
01/02/04,9:30,136.0,264.2,1370.787,,
01/02/04,10:00,136.0,264.2,1370.787,,
01/02/04,10:30,136.1,264.1,1370.788,,
01/02/04,11:00,136.3,263.9,1370.790,,
01/02/04,11:30,136.5,263.7,1370.792,,
01/02/04,12:00,136.6,263.6,1370.793,,
01/02/04,12:30,136.9,263.3,1370.796,,
01/02/04,13:00,136.9,263.3,1370.796,,
01/02/04,13:30,137.0,263.2,1370.797,,
01/02/04,14:00,137.1,263.1,1370.798,,
01/02/04,14:30,137.2,263.0,1370.799,,
01/02/04,15:00,137.1,263.1,1370.798,,
01/02/04,15:30,137.2,263.0,1370.799,,
01/02/04,16:00,137.1,263.1,1370.798,,
01/02/04,16:30,137.0,263.2,1370.797,,
01/02/04,17:00,137.1,263.1,1370.798,,
01/02/04,17:30,137.0,263.2,1370.797,,
01/02/04,18:00,136.9,263.3,1370.796,,
01/02/04,18:30,136.9,263.3,1370.796,,
01/02/04,19:00,136.8,263.4,1370.795,,
01/02/04,19:30,136.7,263.5,1370.794,,
01/02/04,20:00,136.8,263.4,1370.795,,
01/02/04,20:30,136.6,263.6,1370.793,,
01/02/04,21:00,136.6,263.6,1370.793,,
01/02/04,21:30,136.6,263.6,1370.793,,
01/02/04,22:00,136.4,263.8,1370.791,,
01/02/04,22:30,136.5,263.7,1370.792,,
01/02/04,23:00,136.5,263.7,1370.792,,
01/02/04,23:30,136.4,263.8,1370.791,,
01/03/04,0:00,136.6,263.6,1370.793,,
01/03/04,0:30,136.5,263.7,1370.792,,
01/03/04,1:00,136.6,263.6,1370.793,,
01/03/04,1:30,136.6,263.6,1370.793,,
01/03/04,2:00,136.5,263.7,1370.792,,
01/03/04,2:30,136.8,263.4,1370.795,,
01/03/04,3:00,136.6,263.6,1370.793,,
01/03/04,3:30,136.7,263.5,1370.794,,
01/03/04,4:00,136.7,263.5,1370.794,,
01/03/04,4:30,136.8,263.4,1370.795,,
01/03/04,5:00,136.9,263.3,1370.796,,
01/03/04,5:30,136.7,263.5,1370.794,,
01/03/04,6:00,136.8,263.4,1370.795,,
01/03/04,6:30,136.6,263.6,1370.793,,
01/03/04,7:00,136.9,263.3,1370.796,,
01/03/04,7:30,136.7,263.5,1370.794,,
01/03/04,8:00,136.7,263.5,1370.794,,
01/03/04,8:30,136.7,263.5,1370.794,,
01/03/04,9:00,136.7,263.5,1370.794,,
01/03/04,9:30,136.9,263.3,1370.796,,
01/03/04,10:00,136.8,263.4,1370.795,,
01/03/04,10:30,137.0,263.2,1370.797,,
01/03/04,11:00,137.0,263.2,1370.797,,
01/03/04,11:30,137.4,262.8,1370.801,,
01/03/04,12:00,137.4,262.8,1370.801,,
01/03/04,12:30,137.7,262.5,1370.804,,
01/03/04,13:00,137.7,262.5,1370.804,,
01/03/04,13:30,137.7,262.5,1370.804,,
01/03/04,14:00,137.8,262.4,1370.805,,
01/03/04,14:30,137.6,262.6,1370.803,,
01/03/04,15:00,138.1,262.1,1370.808,,
01/03/04,15:30,137.9,262.3,1370.806,,
01/03/04,16:00,137.9,262.3,1370.806,,
01/03/04,16:30,137.6,262.6,1370.803,,
01/03/04,17:00,137.5,262.7,1370.802,,
01/03/04,17:30,137.6,262.6,1370.803,,
01/03/04,18:00,137.5,262.7,1370.802,,
01/03/04,18:30,137.3,262.9,1370.800,,
01/03/04,19:00,137.1,263.1,1370.798,,
01/03/04,19:30,137.1,263.1,1370.798,,
01/03/04,20:00,137.3,262.9,1370.800,,
01/03/04,20:30,137.2,263.0,1370.799,,
01/03/04,21:00,137.0,263.2,1370.797,,
01/03/04,21:30,136.8,263.4,1370.795,,
01/03/04,22:00,136.7,263.5,1370.794,,
01/03/04,22:30,137.0,263.2,1370.797,,
01/03/04,23:00,137.0,263.2,1370.797,,
01/03/04,23:30,136.8,263.4,1370.795,,
01/04/04,0:00,136.9,263.3,1370.796,,
01/04/04,0:30,137.2,263.0,1370.799,,
01/04/04,1:00,137.0,263.2,1370.797,,
01/04/04,1:30,136.8,263.4,1370.795,,
01/04/04,2:00,136.8,263.4,1370.795,,
01/04/04,2:30,137.0,263.2,1370.797,,
01/04/04,3:00,136.9,263.3,1370.796,,
01/04/04,3:30,136.8,263.4,1370.795,,
01/04/04,4:00,137.1,263.1,1370.798,,
01/04/04,4:30,136.9,263.3,1370.796,,
01/04/04,5:00,136.8,263.4,1370.795,,
01/04/04,5:30,136.7,263.5,1370.794,,
01/04/04,6:00,136.6,263.6,1370.793,,
01/04/04,6:30,136.5,263.7,1370.792,,
01/04/04,7:00,136.4,263.8,1370.791,,
01/04/04,7:30,136.6,263.6,1370.793,,
01/04/04,8:00,136.6,263.6,1370.793,,
01/04/04,8:30,136.5,263.7,1370.792,,
01/04/04,9:00,136.4,263.8,1370.791,,
01/04/04,9:30,136.4,263.8,1370.791,,
01/04/04,10:00,136.5,263.7,1370.792,,
01/04/04,10:30,136.6,263.6,1370.793,,
01/04/04,11:00,136.6,263.6,1370.793,,
01/04/04,11:30,136.6,263.6,1370.793,,
01/04/04,12:00,136.6,263.6,1370.793,,
01/04/04,12:30,136.7,263.5,1370.794,,
01/04/04,13:00,137.0,263.3,1370.797,,
01/04/04,13:30,137.1,263.2,1370.798,,
01/04/04,14:00,137.1,263.2,1370.798,,
01/04/04,14:30,137.1,263.2,1370.798,,
01/04/04,15:00,137.3,263.0,1370.800,,
01/04/04,15:30,137.2,263.1,1370.799,,
01/04/04,16:00,137.1,263.2,1370.798,,
01/04/04,16:30,137.4,262.9,1370.801,,
01/04/04,17:00,137.5,262.8,1370.802,,
01/04/04,17:30,137.6,262.7,1370.803,,
01/04/04,18:00,137.4,262.9,1370.801,,
01/04/04,18:30,137.1,263.2,1370.798,,
01/04/04,19:00,137.1,263.2,1370.798,,
01/04/04,19:30,137.0,263.3,1370.797,,
01/04/04,20:00,137.0,263.3,1370.797,,
01/04/04,20:30,136.9,263.4,1370.796,,
01/04/04,21:00,136.9,263.3,1370.796,,
01/04/04,21:30,136.7,263.5,1370.794,,
01/04/04,22:00,137.1,263.1,1370.798,,
01/04/04,22:30,137.0,263.2,1370.797,,
01/04/04,23:00,137.0,263.2,1370.797,,
01/04/04,23:30,137.0,263.2,1370.797,,
01/05/04,0:00,137.1,263.1,1370.798,,
01/05/04,0:30,137.1,263.1,1370.798,,
01/05/04,1:00,137.2,263.0,1370.799,,
01/05/04,1:30,137.2,263.0,1370.799,,
01/05/04,2:00,137.1,263.1,1370.798,,
01/05/04,2:30,137.1,263.1,1370.798,,
01/05/04,3:00,137.1,263.1,1370.798,,
01/05/04,3:30,137.2,263.0,1370.799,,
01/05/04,4:00,137.1,263.1,1370.798,,
01/05/04,4:30,137.0,263.2,1370.797,,
01/05/04,5:00,137.0,263.2,1370.797,,
01/05/04,5:30,137.3,262.9,1370.800,,
01/05/04,6:00,137.0,263.2,1370.797,,
01/05/04,6:30,137.0,263.2,1370.797,,
01/05/04,7:00,137.0,263.2,1370.797,,
01/05/04,7:30,137.3,262.9,1370.800,,
01/05/04,8:00,137.0,263.2,1370.797,,
01/05/04,8:30,137.0,263.2,1370.797,,
01/05/04,9:00,137.1,263.1,1370.798,,
01/05/04,9:30,137.1,263.1,1370.798,,
01/05/04,10:00,137.2,263.0,1370.799,,
01/05/04,10:30,137.3,262.9,1370.800,,
01/05/04,11:00,137.3,262.9,1370.800,,
01/05/04,11:30,137.5,262.7,1370.802,,
01/05/04,12:00,137.7,262.5,1370.804,,
01/05/04,12:30,137.8,262.4,1370.805,,
01/05/04,13:00,137.9,262.3,1370.806,,
01/05/04,13:30,138.1,262.1,1370.808,,
01/05/04,14:00,138.1,262.1,1370.808,,
01/05/04,14:30,138.1,262.1,1370.808,,
01/05/04,15:00,138.2,262.0,1370.809,,
01/05/04,15:30,137.9,262.3,1370.806,,
01/05/04,16:00,138.1,262.1,1370.808,,
01/05/04,16:30,138.1,262.1,1370.808,,
01/05/04,17:00,138.2,262.0,1370.809,,
01/05/04,17:30,138.3,261.9,1370.810,,
01/05/04,18:00,138.3,261.9,1370.810,,
01/05/04,18:30,138.3,261.9,1370.810,,
01/05/04,19:00,138.3,261.9,1370.810,,
01/05/04,19:30,138.3,261.9,1370.810,,
01/05/04,20:00,138.2,262.0,1370.809,,
01/05/04,20:30,138.2,262.0,1370.809,,
01/05/04,21:00,138.0,262.2,1370.807,,
01/05/04,21:30,137.9,262.3,1370.806,,
01/05/04,22:00,138.2,262.0,1370.809,,
01/05/04,22:30,137.9,262.3,1370.806,,
01/05/04,23:00,138.1,262.1,1370.808,,
01/05/04,23:30,138.1,262.1,1370.808,,
01/06/04,0:00,138.2,262.0,1370.809,,
01/06/04,0:30,138.0,262.2,1370.807,,
01/06/04,1:00,138.0,262.2,1370.807,,
01/06/04,1:30,138.1,262.1,1370.808,,
01/06/04,2:00,138.2,262.0,1370.809,,
01/06/04,2:30,138.3,261.9,1370.810,,
01/06/04,3:00,138.4,261.8,1370.811,,
01/06/04,3:30,138.4,261.8,1370.811,,
01/06/04,4:00,138.2,262.0,1370.809,,
01/06/04,4:30,138.2,262.0,1370.809,,
01/06/04,5:00,138.2,262.0,1370.809,,
01/06/04,5:30,138.4,261.8,1370.811,,
01/06/04,6:00,138.2,262.0,1370.809,,
01/06/04,6:30,138.3,261.9,1370.810,,
01/06/04,7:00,138.4,261.8,1370.811,,
01/06/04,7:30,138.3,261.9,1370.810,,
01/06/04,8:00,138.3,261.9,1370.810,,
01/06/04,8:30,138.2,262.0,1370.809,,
01/06/04,9:00,138.3,261.9,1370.810,,
01/06/04,9:30,138.1,262.1,1370.808,,
01/06/04,10:00,138.4,261.8,1370.811,,
01/06/04,10:30,138.6,261.6,1370.813,,
01/06/04,11:00,138.4,261.8,1370.811,,
01/06/04,11:30,138.5,261.7,1370.812,,
01/06/04,12:00,138.7,261.5,1370.814,,
01/06/04,12:30,138.8,261.4,1370.815,,
01/06/04,13:00,138.7,261.5,1370.814,,
01/06/04,13:30,139.0,261.2,1370.817,,
01/06/04,14:00,139.0,261.2,1370.817,,
01/06/04,14:30,139.4,260.8,1370.821,,
01/06/04,15:00,139.0,261.2,1370.817,,
01/06/04,15:30,139.1,261.1,1370.818,,
01/06/04,16:00,139.2,261.0,1370.819,,
01/06/04,16:30,139.1,261.1,1370.818,,
01/06/04,17:00,139.5,260.7,1370.822,,
01/06/04,17:30,139.3,260.9,1370.820,,
01/06/04,18:00,139.2,261.0,1370.819,,
01/06/04,18:30,139.3,260.9,1370.820,,
01/06/04,19:00,139.2,261.0,1370.819,,
01/06/04,19:30,139.3,260.9,1370.820,,
01/06/04,20:00,139.2,261.0,1370.819,,
01/06/04,20:30,139.2,261.0,1370.819,,
01/06/04,21:00,139.3,260.9,1370.820,,
01/06/04,21:30,139.0,261.2,1370.817,,
01/06/04,22:00,139.3,260.9,1370.820,,
01/06/04,22:30,139.2,261.0,1370.819,,
01/06/04,23:00,139.1,261.1,1370.818,,
01/06/04,23:30,139.2,261.0,1370.819,,
01/07/04,0:00,139.4,260.8,1370.821,,
01/07/04,0:30,139.0,261.2,1370.817,,
01/07/04,1:00,139.1,261.1,1370.818,,
01/07/04,1:30,138.9,261.3,1370.816,,
01/07/04,2:00,139.1,261.1,1370.818,,
01/07/04,2:30,139.2,261.0,1370.819,,
01/07/04,3:00,139.1,261.1,1370.818,,
01/07/04,3:30,139.3,260.9,1370.820,,
01/07/04,4:00,139.3,260.9,1370.820,,
01/07/04,4:30,139.3,260.9,1370.820,,
01/07/04,5:00,139.2,261.0,1370.819,,
01/07/04,5:30,139.3,260.9,1370.820,,
01/07/04,6:00,139.7,260.5,1370.824,,
01/07/04,6:30,139.3,260.9,1370.820,,
01/07/04,7:00,139.4,260.8,1370.821,,
01/07/04,7:30,139.4,260.8,1370.821,,
01/07/04,8:00,139.6,260.6,1370.823,,
01/07/04,8:30,139.4,260.8,1370.821,,
01/07/04,9:00,139.3,260.9,1370.820,,
01/07/04,9:30,139.7,260.5,1370.824,,
01/07/04,10:00,139.8,260.4,1370.825,,
01/07/04,10:30,139.6,260.6,1370.823,,
01/07/04,11:00,139.6,260.6,1370.823,,
01/07/04,11:30,139.9,260.3,1370.826,,
01/07/04,12:00,140.0,260.2,1370.827,,
01/07/04,12:30,140.1,260.1,1370.828,,
01/07/04,13:00,140.1,260.1,1370.828,,
01/07/04,13:30,140.2,260.0,1370.829,,
01/07/04,14:00,140.2,260.0,1370.829,,
01/07/04,14:30,140.4,259.8,1370.831,,
01/07/04,15:00,140.3,259.9,1370.830,,
01/07/04,15:30,140.4,259.8,1370.831,,
01/07/04,16:00,140.3,259.9,1370.830,,
01/07/04,16:30,140.7,259.5,1370.834,,
01/07/04,17:00,140.3,259.9,1370.830,,
01/07/04,17:30,140.5,259.7,1370.832,,
01/07/04,18:00,140.3,259.9,1370.830,,
01/07/04,18:30,140.7,259.5,1370.834,,
01/07/04,19:00,140.4,259.8,1370.831,,
01/07/04,19:30,140.5,259.7,1370.832,,
01/07/04,20:00,140.4,259.8,1370.831,,
01/07/04,20:30,140.2,260.0,1370.829,,
01/07/04,21:00,140.4,259.8,1370.831,,
01/07/04,21:30,140.5,259.7,1370.832,,
01/07/04,22:00,140.3,259.9,1370.830,,
01/07/04,22:30,140.2,260.0,1370.829,,
01/07/04,23:00,140.4,259.8,1370.831,,
01/07/04,23:30,140.3,259.9,1370.830,,
01/08/04,0:00,140.6,259.6,1370.833,,
01/08/04,0:30,140.4,259.8,1370.831,,
01/08/04,1:00,140.7,259.6,1370.834,,
01/08/04,1:30,140.4,259.9,1370.831,,
01/08/04,2:00,140.5,259.8,1370.832,,
01/08/04,2:30,140.3,260.0,1370.830,,
01/08/04,3:00,140.3,260.0,1370.830,,
01/08/04,3:30,140.5,259.8,1370.832,,
01/08/04,4:00,140.7,259.6,1370.834,,
01/08/04,4:30,140.5,259.8,1370.832,,
01/08/04,5:00,140.2,260.1,1370.829,,
01/08/04,5:30,140.3,260.0,1370.830,,
01/08/04,6:00,140.3,260.0,1370.830,,
01/08/04,6:30,140.3,260.0,1370.830,,
01/08/04,7:00,140.3,260.0,1370.830,,
01/08/04,7:30,140.3,260.0,1370.830,,
01/08/04,8:00,140.2,260.1,1370.829,,
01/08/04,8:30,140.1,260.2,1370.828,,
01/08/04,9:00,140.3,260.0,1370.830,,
01/08/04,9:30,140.3,259.9,1370.830,,
01/08/04,10:00,140.3,259.9,1370.830,,
01/08/04,10:30,140.6,259.6,1370.833,,
01/08/04,11:00,140.5,259.7,1370.832,,
01/08/04,11:30,140.6,259.6,1370.833,,
01/08/04,12:00,141.0,259.2,1370.837,,
01/08/04,12:30,141.0,259.2,1370.837,,
01/08/04,13:00,141.0,259.2,1370.837,,
01/08/04,13:30,141.2,259.0,1370.839,,
01/08/04,14:00,141.0,259.2,1370.837,,
01/08/04,14:30,141.0,259.2,1370.837,,
01/08/04,15:00,141.1,259.1,1370.838,,
01/08/04,15:30,141.1,259.1,1370.838,,
01/08/04,16:00,141.3,258.9,1370.840,,
01/08/04,16:30,141.1,259.1,1370.838,,
01/08/04,17:00,140.9,259.3,1370.836,,
01/08/04,17:30,141.1,259.1,1370.838,,
01/08/04,18:00,141.1,259.1,1370.838,,
01/08/04,18:30,140.9,259.3,1370.836,,
01/08/04,19:00,141.0,259.2,1370.837,,
01/08/04,19:30,141.0,259.2,1370.837,,
01/08/04,20:00,140.9,259.3,1370.836,,
01/08/04,20:30,140.9,259.3,1370.836,,
01/08/04,21:00,140.8,259.4,1370.835,,
01/08/04,21:30,140.8,259.4,1370.835,,
01/08/04,22:00,140.8,259.4,1370.835,,
01/08/04,22:30,140.7,259.5,1370.834,,
01/08/04,23:00,140.5,259.7,1370.832,,
01/08/04,23:30,140.5,259.7,1370.832,,
01/09/04,0:00,140.8,259.4,1370.835,,
01/09/04,0:30,140.7,259.5,1370.834,,
01/09/04,1:00,140.6,259.6,1370.833,,
01/09/04,1:30,140.6,259.6,1370.833,,
01/09/04,2:00,140.9,259.3,1370.836,,
01/09/04,2:30,140.9,259.3,1370.836,,
01/09/04,3:00,140.8,259.4,1370.835,,
01/09/04,3:30,140.7,259.5,1370.834,,
01/09/04,4:00,140.7,259.5,1370.834,,
01/09/04,4:30,140.7,259.5,1370.834,,
01/09/04,5:00,140.9,259.3,1370.836,,
01/09/04,5:30,140.8,259.4,1370.835,,
01/09/04,6:00,140.8,259.4,1370.835,,
01/09/04,6:30,140.7,259.5,1370.834,,
01/09/04,7:00,140.6,259.6,1370.833,,
01/09/04,7:30,140.6,259.6,1370.833,,
01/09/04,8:00,140.7,259.5,1370.834,,
01/09/04,8:30,140.9,259.3,1370.836,,
01/09/04,9:00,140.9,259.3,1370.836,,
01/09/04,9:30,141.0,259.2,1370.837,,
01/09/04,10:00,141.0,259.2,1370.837,,
01/09/04,10:30,141.0,259.2,1370.837,,
01/09/04,11:00,141.2,259.0,1370.839,,
01/09/04,11:30,141.3,258.9,1370.840,,
01/09/04,12:00,141.4,258.8,1370.841,,
01/09/04,12:30,141.7,258.5,1370.844,,
01/09/04,13:00,142.0,258.2,1370.847,,
01/09/04,13:30,141.8,258.4,1370.845,,
01/09/04,14:00,141.8,258.4,1370.845,,
01/09/04,14:30,141.9,258.3,1370.846,,
01/09/04,15:00,142.4,257.8,1370.851,,
01/09/04,15:30,142.1,258.1,1370.848,,
01/09/04,16:00,141.8,258.4,1370.845,,
01/09/04,16:30,141.9,258.3,1370.846,,
01/09/04,17:00,141.8,258.4,1370.845,,
01/09/04,17:30,142.1,258.1,1370.848,,
01/09/04,18:00,141.9,258.3,1370.846,,
01/09/04,18:30,141.8,258.4,1370.845,,
01/09/04,19:00,141.8,258.4,1370.845,,
01/09/04,19:30,141.9,258.3,1370.846,,
01/09/04,20:00,141.9,258.3,1370.846,,
01/09/04,20:30,141.9,258.3,1370.846,,
01/09/04,21:00,141.8,258.4,1370.845,,
01/09/04,21:30,141.7,258.5,1370.844,,
01/09/04,22:00,141.6,258.6,1370.843,,
01/09/04,22:30,141.6,258.6,1370.843,,
01/09/04,23:00,141.6,258.6,1370.843,,
01/09/04,23:30,141.8,258.4,1370.845,,
01/10/04,0:00,141.5,258.7,1370.842,,
01/10/04,0:30,141.4,258.8,1370.841,,
01/10/04,1:00,141.9,258.3,1370.846,,
01/10/04,1:30,141.7,258.5,1370.844,,
01/10/04,2:00,141.7,258.5,1370.844,,
01/10/04,2:30,141.9,258.3,1370.846,,
01/10/04,3:00,141.9,258.3,1370.846,,
01/10/04,3:30,141.9,258.3,1370.846,,
01/10/04,4:00,141.9,258.3,1370.846,,
01/10/04,4:30,142.0,258.2,1370.847,,
01/10/04,5:00,142.0,258.2,1370.847,,
01/10/04,5:30,142.0,258.2,1370.847,,
01/10/04,6:00,142.1,258.1,1370.848,,
01/10/04,6:30,142.0,258.2,1370.847,,
01/10/04,7:00,142.0,258.2,1370.847,,
01/10/04,7:30,142.2,258.0,1370.849,,
01/10/04,8:00,142.3,257.9,1370.850,,
01/10/04,8:30,142.1,258.1,1370.848,,
01/10/04,9:00,142.1,258.1,1370.848,,
01/10/04,9:30,142.3,257.9,1370.850,,
01/10/04,10:00,142.4,257.8,1370.851,,
01/10/04,10:30,142.3,257.9,1370.850,,
01/10/04,11:00,142.4,257.8,1370.851,,
01/10/04,11:30,142.7,257.5,1370.854,,
01/10/04,12:00,142.7,257.5,1370.854,,
01/10/04,12:30,142.7,257.5,1370.854,,
01/10/04,13:00,142.7,257.5,1370.854,,
01/10/04,13:30,142.7,257.5,1370.854,,
01/10/04,14:00,143.0,257.2,1370.857,,
01/10/04,14:30,143.0,257.2,1370.857,,
01/10/04,15:00,143.2,257.0,1370.859,,
01/10/04,15:30,142.9,257.3,1370.856,,
01/10/04,16:00,142.8,257.4,1370.855,,
01/10/04,16:30,143.0,257.2,1370.857,,
01/10/04,17:00,143.1,257.1,1370.858,,
01/10/04,17:30,143.1,257.1,1370.858,,
01/10/04,18:00,142.8,257.4,1370.855,,
01/10/04,18:30,143.2,257.0,1370.859,,
01/10/04,19:00,142.9,257.3,1370.856,,
01/10/04,19:30,142.7,257.5,1370.854,,
01/10/04,20:00,143.0,257.2,1370.857,,
01/10/04,20:30,142.7,257.5,1370.854,,
01/10/04,21:00,142.8,257.4,1370.855,,
01/10/04,21:30,143.1,257.1,1370.858,,
01/10/04,22:00,142.9,257.3,1370.856,,
01/10/04,22:30,142.9,257.3,1370.856,,
01/10/04,23:00,142.7,257.5,1370.854,,
01/10/04,23:30,142.6,257.6,1370.853,,
01/11/04,0:00,142.6,257.6,1370.853,,
01/11/04,0:30,142.7,257.5,1370.854,,
01/11/04,1:00,142.7,257.5,1370.854,,
01/11/04,1:30,142.7,257.5,1370.854,,
01/11/04,2:00,143.0,257.2,1370.857,,
01/11/04,2:30,142.7,257.5,1370.854,,
01/11/04,3:00,142.7,257.5,1370.854,,
01/11/04,3:30,142.7,257.5,1370.854,,
01/11/04,4:00,142.6,257.6,1370.853,,
01/11/04,4:30,142.8,257.4,1370.855,,
01/11/04,5:00,142.9,257.3,1370.856,,
01/11/04,5:30,142.7,257.5,1370.854,,
01/11/04,6:00,142.7,257.5,1370.854,,
01/11/04,6:30,142.8,257.4,1370.855,,
01/11/04,7:00,142.9,257.3,1370.856,,
01/11/04,7:30,142.8,257.4,1370.855,,
01/11/04,8:00,142.7,257.5,1370.854,,
01/11/04,8:30,142.8,257.4,1370.855,,
01/11/04,9:00,142.9,257.3,1370.856,,
01/11/04,9:30,143.1,257.1,1370.858,,
01/11/04,10:00,142.9,257.3,1370.856,,
01/11/04,10:30,142.9,257.3,1370.856,,
01/11/04,11:00,143.1,257.1,1370.858,,
01/11/04,11:30,143.3,256.9,1370.860,,
01/11/04,12:00,143.4,256.8,1370.861,,
01/11/04,12:30,143.4,256.8,1370.861,,
01/11/04,13:00,143.4,256.8,1370.861,,
01/11/04,13:30,143.6,256.7,1370.863,,
01/11/04,14:00,143.8,256.5,1370.865,,
01/11/04,14:30,143.9,256.4,1370.866,,
01/11/04,15:00,143.7,256.6,1370.864,,
01/11/04,15:30,143.7,256.6,1370.864,,
01/11/04,16:00,143.7,256.6,1370.864,,
01/11/04,16:30,143.8,256.5,1370.865,,
01/11/04,17:00,143.7,256.6,1370.864,,
01/11/04,17:30,143.6,256.7,1370.863,,
01/11/04,18:00,143.6,256.7,1370.863,,
01/11/04,18:30,143.6,256.7,1370.863,,
01/11/04,19:00,143.7,256.6,1370.864,,
01/11/04,19:30,143.7,256.6,1370.864,,
01/11/04,20:00,143.5,256.8,1370.862,,
01/11/04,20:30,143.5,256.8,1370.862,,
01/11/04,21:00,143.7,256.6,1370.864,,
01/11/04,21:30,143.7,256.6,1370.864,,
01/11/04,22:00,143.5,256.7,1370.862,,
01/11/04,22:30,143.3,256.9,1370.860,,
01/11/04,23:00,143.5,256.7,1370.862,,
01/11/04,23:30,143.7,256.5,1370.864,,
01/12/04,0:00,143.5,256.7,1370.862,,
01/12/04,0:30,143.4,256.8,1370.861,,
01/12/04,1:00,143.5,256.7,1370.862,,
01/12/04,1:30,143.6,256.6,1370.863,,
01/12/04,2:00,143.5,256.7,1370.862,,
01/12/04,2:30,143.4,256.8,1370.861,,
01/12/04,3:00,143.5,256.7,1370.862,,
01/12/04,3:30,143.6,256.6,1370.863,,
01/12/04,4:00,143.4,256.8,1370.861,,
01/12/04,4:30,143.4,256.8,1370.861,,
01/12/04,5:00,143.6,256.6,1370.863,,
01/12/04,5:30,143.6,256.6,1370.863,,
01/12/04,6:00,143.4,256.8,1370.861,,
01/12/04,6:30,143.4,256.8,1370.861,,
01/12/04,7:00,143.6,256.6,1370.863,,
01/12/04,7:30,143.5,256.7,1370.862,,
01/12/04,8:00,143.4,256.8,1370.861,,
01/12/04,8:30,143.5,256.7,1370.862,,
01/12/04,9:00,143.4,256.8,1370.861,,
01/12/04,9:30,143.3,256.9,1370.860,,
01/12/04,10:00,143.5,256.7,1370.862,,
01/12/04,10:30,143.5,256.7,1370.862,,
01/12/04,11:00,143.4,256.8,1370.861,,
01/12/04,11:30,143.6,256.6,1370.863,,
01/12/04,12:00,143.8,256.4,1370.865,,
01/12/04,12:30,143.7,256.5,1370.864,,
01/12/04,13:00,143.9,256.3,1370.866,,
01/12/04,13:30,144.0,256.2,1370.867,,
01/12/04,14:00,144.0,256.2,1370.867,,
01/12/04,14:30,144.0,256.2,1370.867,,
01/12/04,15:00,143.9,256.3,1370.866,,
01/12/04,15:30,144.0,256.2,1370.867,,
01/12/04,16:00,144.1,256.1,1370.868,,
01/12/04,16:30,143.9,256.3,1370.866,,
01/12/04,17:00,144.1,256.1,1370.868,,
01/12/04,17:30,143.9,256.3,1370.866,,
01/12/04,18:00,143.9,256.3,1370.866,,
01/12/04,18:30,143.9,256.3,1370.866,,
01/12/04,19:00,143.7,256.5,1370.864,,
01/12/04,19:30,143.7,256.5,1370.864,,
01/12/04,20:00,143.8,256.4,1370.865,,
01/12/04,20:30,143.6,256.6,1370.863,,
01/12/04,21:00,143.8,256.4,1370.865,,
01/12/04,21:30,143.7,256.5,1370.864,,
01/12/04,22:00,143.7,256.5,1370.864,,
01/12/04,22:30,143.8,256.4,1370.865,,
01/12/04,23:00,143.6,256.6,1370.863,,
01/12/04,23:30,143.8,256.4,1370.865,,
01/13/04,0:00,143.6,256.6,1370.863,,
01/13/04,0:30,143.7,256.5,1370.864,,
01/13/04,1:00,143.8,256.4,1370.865,,
01/13/04,1:30,143.7,256.5,1370.864,,
01/13/04,2:00,143.8,256.4,1370.865,,
01/13/04,2:30,143.6,256.6,1370.863,,
01/13/04,3:00,143.8,256.4,1370.865,,
01/13/04,3:30,143.6,256.6,1370.863,,
01/13/04,4:00,143.8,256.4,1370.865,,
01/13/04,4:30,143.6,256.6,1370.863,,
01/13/04,5:00,143.8,256.4,1370.865,,
01/13/04,5:30,143.6,256.6,1370.863,,
01/13/04,6:00,143.8,256.4,1370.865,,
01/13/04,6:30,143.7,256.5,1370.864,,
01/13/04,7:00,143.8,256.4,1370.865,,
01/13/04,7:30,143.7,256.5,1370.864,,
01/13/04,8:00,143.7,256.5,1370.864,,
01/13/04,8:30,143.8,256.4,1370.865,,
01/13/04,9:00,143.8,256.4,1370.865,,
01/13/04,9:30,143.9,256.3,1370.866,,
01/13/04,10:00,143.8,256.4,1370.865,,
01/13/04,10:30,144.1,256.1,1370.868,,
01/13/04,11:00,144.0,256.2,1370.867,,
01/13/04,11:30,144.2,256.0,1370.869,,
01/13/04,12:00,,,,,
01/13/04,12:30,,,,,
01/13/04,13:00,,,,,
01/13/04,13:30,,,,,
01/13/04,14:00,,,,,
01/13/04,14:30,,,,,
01/13/04,15:00,144.2,256.0,1370.869,,
01/13/04,15:30,144.1,256.1,1370.868,,
01/13/04,16:00,144.0,256.2,1370.867,,
01/13/04,16:30,144.2,256.0,1370.869,,
01/13/04,17:00,144.3,255.9,1370.870,,
01/13/04,17:30,144.4,255.8,1370.871,,